#timestamp,LO_Frequency,Hit,StdDev 
1523368815.1,286046999.2,P
1523368835.9,286046999.0,N
1523368855.7,286046998.7,N
1523368875.6,286046998.1,N
1523368895.4,286047001.1,N
1523368915.2,286046998.3,N
1523368935.1,286046998.5,N
1523368936.0,286046998.5,N
1523368955.8,286046998.4,N
1523368975.6,286046998.1,N
1523368995.5,286047000.2,N
1523369015.3,286046999.1,N
1523369035.2,286046999.4,N
1523369055.9,286046999.6,N
1523369075.7,286047000.9,N
1523369095.6,286046998.2,N
1523369115.4,286047000.5,N
1523369135.2,286047000.2,N
1523369155.1,286047000.5,N
1523369156.0,286047000.5,N
1523369175.8,286047002.7,N
1523369195.7,286047000.0,N
1523369215.5,286047000.9,N
1523369235.3,286047000.8,N
1523369255.2,286046998.2,N
1523369275.0,286046998.5,N
1523369275.9,286046998.5,N
1523369295.8,286046998.5,N
1523369315.6,286046999.0,N
1523369335.4,286046996.7,N
1523369355.3,286047000.7,N
1523369375.1,286047000.4,N
1523369395.8,286046998.2,N
1523369415.7,286046998.3,N
1523369435.5,286046999.2,N
1523369455.4,286046997.0,N
1523369475.2,286046996.9,N
1523369495.0,286046996.9,N
1523369495.9,286046996.9,N
1523369515.8,286046997.6,N
1523369535.6,286046997.4,N
1523369555.4,286046995.1,Y
1523369575.3,286046996.7,P
1523369595.1,286046997.0,N
1523369615.9,286046999.6,N
1523369635.7,286046997.2,N
1523369655.5,286046998.0,N
1523369675.4,286046997.0,N
1523369695.2,286046997.9,N
1523369715.0,286046995.3,Y
1523369716.0,286046995.3,P
1523369735.8,286046998.8,N
1523369755.6,286047001.1,N
1523369775.5,286046998.1,N
1523369795.3,286047001.0,N
1523369815.1,286047001.1,N
1523369835.9,286047000.4,N
1523369855.7,286047002.7,N
1523369875.5,286047002.5,N
1523369895.4,286047001.7,N
1523369915.2,286047002.0,N
1523369935.1,286047002.8,N
1523369936.0,286047002.8,N
1523369955.8,286047002.5,N
1523369975.6,286047002.5,N
1523369995.5,286046999.7,N
1523370015.3,286046999.8,N
1523370035.2,286047001.8,N
1523370055.9,286047001.8,N
1523370075.7,286047001.3,N
1523370095.6,286046999.7,N
1523370115.4,286047002.1,N
1523370135.2,286047001.6,N
1523370155.1,286047001.4,N
1523370156.0,286047001.4,N
1523370175.8,286047001.4,N
1523370195.7,286047001.3,N
1523370215.5,286047002.0,N
1523370235.3,286047001.7,N
1523370255.2,286047003.7,N
1523370275.0,286047003.9,N
1523370275.9,286047003.9,Y
1523370295.8,286047001.4,P
1523370315.6,286047004.0,P
1523370335.4,286047001.8,N
1523370355.3,286047001.6,N
1523370375.1,286047003.9,Y
1523370395.8,286047002.8,P
1523370415.7,286047000.1,N
1523370435.5,286047002.2,N
1523370455.4,286046999.7,N
1523370475.2,286047002.0,N
1523370495.0,286047001.5,N
1523370495.9,286047001.5,N
1523370515.8,286047001.7,N
1523370535.6,286047004.0,Y
1523370555.5,286047000.2,P
1523370575.3,286047000.1,N
1523370595.1,286047000.8,N
1523370615.9,286047000.3,N
1523370635.7,286047000.5,N
1523370655.5,286046999.9,N
1523370675.4,286047000.0,N
1523370695.2,286047001.1,N
1523370715.0,286047000.8,N
1523370716.0,286047000.8,N
1523370735.8,286046998.2,Y
1523370755.6,286047000.4,P
1523370775.5,286047000.3,P
1523370795.3,286047000.2,N
1523370815.1,286047000.6,Y
1523370835.9,286047000.2,P
1523370855.7,286046998.2,P
1523370875.6,286047000.9,N
1523370895.4,286047000.5,N
1523370915.2,286047001.5,N
1523370935.1,286047002.7,N
1523370936.0,286047002.7,N
1523370955.8,286047002.6,N
1523370975.6,286047000.2,N
1523370995.5,286047000.1,N
1523371015.3,286046999.7,N
1523371035.2,286047000.1,N
1523371055.9,286046999.9,N
1523371075.7,286047000.3,N
1523371095.6,286047000.5,N
1523371115.4,286047001.1,N
1523371135.2,286047000.5,N
1523371155.1,286046998.2,N
1523371156.0,286046998.2,N
1523371175.8,286047000.7,N
1523371195.7,286046998.2,N
1523371215.5,286046998.6,N
1523371235.3,286047001.1,N
1523371255.2,286047001.1,N
1523371275.0,286047000.9,N
1523371275.9,286047000.9,N
1523371295.7,286047000.5,N
1523371315.6,286047001.2,N
1523371335.4,286047001.2,N
1523371355.3,286047001.2,N
1523371375.1,286047001.2,N
1523371376.0,286047001.2,N
1523371395.8,286047000.3,N
1523371415.7,286047000.3,N
1523371435.5,286047000.9,N
1523371455.4,286046998.1,N
1523371475.2,286047000.0,N
1523371495.0,286047000.5,N
1523371495.9,286047000.5,N
1523371515.8,286046998.5,N
1523371535.6,286047000.6,N
1523371555.4,286047000.7,N
1523371575.3,286046998.3,N
1523371595.1,286046998.5,N
1523371615.9,286047001.1,N
1523371635.7,286047001.2,N
1523371655.5,286047000.7,N
1523371675.4,286046998.6,N
1523371695.2,286046998.9,N
1523371715.1,286046998.4,N
1523371716.0,286046998.4,N
1523371735.8,286046999.0,N
1523371755.6,286046998.6,N
1523371775.5,286047000.2,N
1523371795.3,286047002.3,N
1523371815.1,286047002.3,N
1523371835.9,286047002.1,N
1523371855.7,286047002.5,N
1523371875.6,286047002.2,N
1523371895.4,286047002.5,N
1523371915.2,286046999.9,N
1523371935.1,286047000.4,N
1523371936.0,286047000.4,N
1523371955.8,286047000.1,N
1523371975.6,286046999.9,N
1523371995.5,286047000.0,N
1523372015.3,286047000.0,N
1523372035.2,286047002.3,N
1523372055.9,286047001.5,N
1523372075.7,286047000.3,N
1523372095.6,286047002.3,N
1523372115.4,286046999.7,N
1523372135.2,286046999.7,N
1523372155.1,286047001.5,N
1523372156.0,286047001.5,N
1523372175.8,286047004.0,N
1523372195.7,286047001.7,N
1523372215.5,286047003.8,N
1523372235.3,286047004.1,N
1523372255.2,286047002.2,N
1523372275.0,286047002.0,N
1523372275.9,286047002.0,N
1523372295.8,286047002.6,N
1523372315.6,286047000.1,N
1523372335.4,286047000.5,N
1523372355.3,286047000.5,N
1523372375.1,286047000.1,N
1523372395.9,286047001.0,N
